This is the latest recevied weather packets stored in our database for station/object JH1LWU-13. If no packets are shown the sender has not sent any weather packets the latest 10 day(s).
| Time | Temp. | Humidity | Pressure | Rain* | Wind** | Luminosity | Snow |
|---|---|---|---|---|---|---|---|
| 1777559455 | 11.67° C | 74% | 1015 hPa | 0 mm | - | - | - |
| 1777557654 | 12.22° C | 69% | 1015 hPa | 0 mm | - | - | - |
| 1777555853 | 12.22° C | 64% | 1017 hPa | 0 mm | - | - | - |
| 1777554052 | 12.78° C | 63% | 1015 hPa | 0 mm | - | - | - |
| 1777552251 | 12.78° C | 61% | 1016 hPa | 0 mm | - | - | - |
| 1777550450 | 12.78° C | 60% | 1016 hPa | 0 mm | - | - | - |
| 1777548649 | 12.78° C | 59% | 1016 hPa | 0 mm | - | - | - |
| 1777546848 | 13.33° C | 57% | 1017 hPa | 0 mm | - | - | - |
| 1777545047 | 13.89° C | 52% | 1016 hPa | 0 mm | - | - | - |
| 1777543246 | 14.44° C | 53% | 1019 hPa | 0 mm | - | - | - |
| 1777541445 | 13.89° C | 53% | 1017 hPa | 0 mm | - | - | - |
| 1777539644 | 13.89° C | 53% | 1018 hPa | 0 mm | - | - | - |
| 1777537843 | 13.89° C | 53% | 1015 hPa | 0 mm | - | - | - |
| 1777536042 | 14.44° C | 52% | 1018 hPa | 0 mm | - | - | - |
| 1777534241 | 14.44° C | 51% | 1018 hPa | 0 mm | - | - | - |
| 1777532440 | 15° C | 48% | 1015 hPa | 0 mm | - | - | - |
| 1777530639 | 15° C | 47% | 1017 hPa | 0 mm | - | - | - |
| 1777528838 | 15.56° C | 47% | 1015 hPa | 0 mm | - | - | - |
| 1777527037 | 15.56° C | 46% | 1017 hPa | 0 mm | - | - | - |
| 1777525236 | 15.56° C | 46% | 1017 hPa | 0 mm | - | - | - |
| 1777523435 | 15.56° C | 46% | 1018 hPa | 0 mm | - | - | - |
| 1777521634 | 15.56° C | 46% | 1019 hPa | 0 mm | - | - | - |
| 1777519833 | 15.56° C | 45% | 1017 hPa | 0 mm | - | - | - |
| 1777518032 | 15.56° C | 47% | 1017 hPa | 0 mm | - | - | - |
| 1777516231 | 15.56° C | 52% | 1019 hPa | 0 mm | - | - | - |
* Rain latest hour (hover to see other rain measurements)
** Current wind speed in m/s (hover to see current wind gust speed)